Weather History for Conroe, TX

Change the Weather History Date:

Wednesday, September 25, 2013

  Actual Average Record
Temperature  
Mean Temperature 77 °F -  
Max Temperature 93 °F 85 °F 100 °F (2005)
Min Temperature 61 °F 60 °F 52 °F (2000)
Cooling Degree Days 12    
Growing Degree Days 27 (Base 50)    
Moisture  
Dew Point 61 °F    
Average Humidity 68    
Maximum Humidity 100    
Minimum Humidity 25    
Precipitation  
Precipitation 0.00 in - - ()
Sea Level Pressure  
Sea Level Pressure 29.83 in    
Wind  
Wind Speed 1 mph (NNW)    
Max Wind Speed 8 mph    
Max Gust Speed -    
Visibility 10 miles    
Events      
Averages and records for this station are not official NWS values.
T = Trace of Precipitation, MM = Missing Value Source: NWS Daily Summary

Daily Weather History Graph

Daily Weather History Graph

Search for Another Location

Airport:

Trip Planner

Search our weather history database for the weather conditions in past years. The results will help you decide how hot, cold, wet, or windy it might be!

Date:

Astronomy

Sep. 25, 2013 Rise Set
Actual Time 7:11 AM CDT 7:14 PM CDT
Civil Twilight 6:47 AM CDT 7:38 PM CDT
Nautical Twilight 6:19 AM CDT 8:05 PM CDT
Astronomical Twilight 5:51 AM CDT 8:33 PM CDT
Moon 11:42 PM CDT (9/25) 12:56 PM CDT (9/25)
Length of Visible Light 12h 50m
Length of Day
12h 02m
Waning Gibbous, 64% of the Moon is Illuminated
Sep 25
Waning Gibbous
Sep 26
Last Quarter
Oct 4
New
Oct 11
First Quarter
Oct 18
Full

Hourly Weather History & Observations

Time (CDT) Temp. Heat Index Dew Point Humidity Pressure Visibility Wind Dir Wind Speed Gust Speed Precip Events Conditions
12:53 AM 66.0 °F - 64.0 °F 93% 29.84 in 10.0 mi Calm Calm - N/A   Clear
1:53 AM 64.9 °F - 63.0 °F 93% 29.84 in 10.0 mi Calm Calm - N/A   Clear
2:53 AM 64.0 °F - 63.0 °F 96% 29.84 in 9.0 mi Calm Calm - N/A   Clear
3:53 AM 64.0 °F - 63.0 °F 96% 29.83 in 8.0 mi Calm Calm - N/A   Clear
4:53 AM 63.0 °F - 62.1 °F 97% 29.83 in 7.0 mi Calm Calm - N/A   Clear
5:53 AM 62.1 °F - 62.1 °F 100% 29.84 in 8.0 mi Calm Calm - N/A   Clear
6:53 AM 61.0 °F - 61.0 °F 100% 29.86 in 8.0 mi NNW 4.6 mph - N/A   Clear
7:53 AM 64.0 °F - 63.0 °F 96% 29.86 in 10.0 mi Calm Calm - N/A   Clear
8:53 AM 73.9 °F - 66.9 °F 79% 29.88 in 10.0 mi Calm Calm - N/A   Clear
9:53 AM 82.9 °F 84.4 °F 64.0 °F 53% 29.88 in 10.0 mi North 4.6 mph - N/A   Clear
10:53 AM 86.0 °F 87.3 °F 64.0 °F 48% 29.88 in 10.0 mi NW 3.5 mph - N/A   Clear
11:53 AM 89.1 °F 89.3 °F 62.1 °F 40% 29.88 in 10.0 mi WNW 4.6 mph - N/A   Clear
12:53 PM 91.0 °F 90.2 °F 59.0 °F 34% 29.86 in 10.0 mi Calm Calm - N/A   Clear
1:53 PM 93.0 °F 91.7 °F 57.0 °F 30% 29.83 in 10.0 mi NNW 8.1 mph - N/A   Clear
2:53 PM 93.0 °F 91.7 °F 57.0 °F 30% 29.81 in 10.0 mi Variable 3.5 mph - N/A   Clear
3:53 PM 93.9 °F 92.0 °F 55.0 °F 27% 29.79 in 10.0 mi Variable 3.5 mph - N/A   Clear
4:53 PM 93.9 °F 91.4 °F 53.1 °F 25% 29.78 in 10.0 mi Calm Calm - N/A   Clear
5:53 PM 91.9 °F - 51.1 °F 25% 29.78 in 10.0 mi Calm Calm - N/A   Clear
6:53 PM 82.9 °F 84.4 °F 64.0 °F 53% 29.78 in 10.0 mi Calm Calm - N/A   Clear
7:53 PM 73.0 °F - 64.0 °F 73% 29.79 in 10.0 mi North 3.5 mph - N/A   Clear
8:53 PM 69.1 °F - 64.0 °F 84% 29.81 in 10.0 mi Calm Calm - N/A   Clear
9:53 PM 68.0 °F - 63.0 °F 84% 29.83 in 10.0 mi Calm Calm - N/A   Clear
10:53 PM 66.9 °F - 63.0 °F 87% 29.83 in 10.0 mi Calm Calm - N/A   Clear
11:53 PM 64.9 °F - 63.0 °F 93% 29.83 in 10.0 mi Calm Calm - N/A   Clear